{"data":{"norad_id":63833,"intl_designator":"2025-052BP","name":"HERMES-4","alt_names":[],"object_type":"PAYLOAD","status":"ACTIVE","operator":null,"country":"IT","launch_date":"2025-03-15","launch_site_code":"AFWTR","launch_vehicle":null,"mission":null,"orbit_class":"UNKNOWN","rcs_meters":null,"size_class":null,"mass_kg":null,"dimensions":null,"purposes":[],"wikipedia_slug":null,"has_3d_model":false,"image_url":null,"decayed_at":null,"tle_current":{"epoch":"2026-05-24T16:20:34.233792Z","epoch_age_seconds":92878,"freshness":"FRESH","line1":"1 63833U 25052BP  26144.68095178  .00014974  00000+0  52864-3 0  9990","line2":"2 63833  97.3900  38.6441 0000884 350.7431   9.3793 15.29322564 66352","mean_motion":15.29322564,"eccentricity":8.84e-5,"inclination_deg":97.39,"raan_deg":38.6441,"arg_perigee_deg":350.7431,"mean_anomaly_deg":9.3793,"bstar":0.00052864,"rev_number":6635,"period_min":94.159337859609,"perigee_km":477.23011965181,"apogee_km":478.44225571139,"semimajor_km":6855.9731876816,"source":"CELESTRAK","updated_at":"2026-05-25T13:38:04.015111Z"}}}